Theta_e
325 327 327 328 333 336 333 331 329 328 328 326 328 330 330 330 328 326 325 326 323 321 324 319 318 317 316 315 313 310 309 308 304 305 307 310 309 307 311 314 316 312 312
330 328 327 327 326 331 334 333 331 330 330 328 329 329 330 330 329 327 325 327 324 322 323 320 319 320 316 315 315 310 309 308 307 303 303 305 305 307 311 310 313 315 311
326 326 327 328 333 332 330 331 332 331 330 329 330 329 330 330 329 328 327 328 325 324 323 320 319 318 315 314 312 310 310 310 306 304 301 302 304 306 308 308 309 308 312
327 329 322 325 329 324 331 333 335 332 331 330 329 331 331 331 330 329 328 328 326 325 325 321 321 318 316 316 314 310 306 304 302 301 300 301 302 305 306 305 305 304 306
326 324 322 322 322 323 326 324 331 334 334 331 330 330 330 331 331 329 328 327 326 323 323 323 322 321 321 318 313 308 305 303 301 300 299 299 300 301 302 303 302 302 303
323 326 324 324 323 322 319 320 330 332 331 331 330 330 329 331 318 315 323 325 325 322 321 321 321 321 319 315 314 311 308 303 301 300 299 298 299 301 302 302 301 298 299
321 324 326 325 325 325 323 318 331 331 330 329 329 329 328 329 312 310 314 324 322 321 321 320 319 322 317 314 311 310 309 308 306 302 299 299 299 301 301 301 300 298 298
320 319 320 323 324 323 320 319 321 331 331 331 330 329 328 329 310 307 310 325 323 321 320 320 319 317 315 313 311 308 307 306 306 306 302 304 302 303 304 303 301 300 300
319 318 317 316 318 321 324 320 323 329 329 328 329 328 327 327 310 308 311 323 323 321 322 321 320 314 308 306 311 308 306 305 307 306 305 303 302 301 302 300 298 297 297
317 316 314 313 312 314 318 320 327 327 328 327 326 326 321 327 307 305 310 324 323 322 321 320 312 316 305 302 309 305 303 302 303 304 302 301 301 301 303 301 300 297 296
317 313 311 308 308 310 309 313 320 325 324 322 325 326 326 324 320 305 304 324 324 322 321 317 315 305 302 299 302 304 303 301 302 300 298 298 299 300 300 301 301 301 298
313 310 308 306 306 307 304 310 313 321 323 324 323 323 324 325 312 304 303 308 316 322 320 317 306 297 297 297 298 298 297 299 297 296 296 297 298 299 301 301 303 306 309
309 308 307 309 307 304 304 306 307 309 313 317 323 323 311 308 306 301 301 300 307 321 318 308 297 295 295 296 297 297 296 296 296 295 296 297 298 300 301 305 307 308 309
307 306 306 305 303 301 301 302 305 305 305 307 310 306 301 301 302 304 307 308 304 305 302 301 299 299 299 301 300 299 299 298 297 296 297 298 301 304 300 301 300 303 303
306 305 303 301 302 301 298 296 297 301 297 301 304 302 299 296 297 296 297 297 298 299 303 302 301 301 300 300 301 302 302 299 298 298 299 297 297 296 296 298 302 302 299
304 304 303 301 303 303 301 300 296 294 293 292 292 297 301 297 294 295 295 294 294 294 300 301 300 300 300 300 300 300 298 299 298 297 296 296 295 295 296 298 300 299 297
302 302 302 302 302 302 302 300 299 299 295 293 292 292 293 293 292 293 293 293 293 296 298 299 300 302 301 301 299 298 296 297 297 296 295 295 295 295 297 297 297 297 296
301 301 303 303 305 304 304 302 300 300 299 298 295 294 293 292 292 291 292 295 297 295 298 300 300 300 300 299 297 297 296 297 295 295 294 295 295 297 296 296 296 296 296
300 301 302 303 303 304 303 301 302 302 300 298 297 294 291 291 291 292 293 297 299 299 299 299 299 299 298 298 297 295 294 294 296 297 296 296 297 297 296 296 296 290 292
298 297 301 304 303 304 304 303 303 301 300 299 298 297 296 293 293 292 294 297 299 298 297 297 297 297 297 297 296 296 295 296 296 296 296 296 297 297 296 296 296 295 295
299 301 294 303 303 304 303 302 303 303 301 299 298 296 290 297 296 294 294 294 294 295 294 294 294 296 297 297 297 297 296 296 295 295 295 295 296 295 296 296 296 296 296
304 302 302 302 304 304 301 301 301 300 298 295 294 293 289 297 297 296 295 297 296 296 296 296 297 297 298 298 298 297 296 295 295 295 295 296 296 296 296 296 296 296 296
304 305 304 305 304 297 300 301 300 298 296 295 296 297 296 296 297 297 297 297 295 296 297 297 296 295 298 298 298 296 294 294 295 295 295 295 295 295 296 295 296 296 296
302 303 303 303 302 300 300 300 298 294 298 298 297 296 297 297 297 297 297 298 297 296 296 295 295 294 294 295 294 294 294 294 293 293 293 293 293 293 294 294 295 296 296
301 302 301 300 300 299 299 298 299 299 299 299 299 299 298 298 298 298 298 295 295 294 293 292 291 291 291 289 288 289 288 286 287 287 289 290 291 291 292 293 294 296 296
300 301 299 299 298 298 297 297 297 297 296 297 298 298 298 297 296 296 295 293 292 292 292 291 291 290 289 287 287 285 286 286 287 286 288 289 289 290 291 292 294 294 295
Wind_Speed
5 7 8 12 20 10 9 11 6 5 7 6 8 12 12 12 9 6 5 6 8 7 5 7 6 6 4 3 2 2 3 4 2 4 3 3 4 5 5 5 5 5 5
8 6 5 7 6 14 19 13 5 6 5 5 7 11 11 12 11 11 10 9 9 10 8 7 7 4 5 3 3 3 2 3 3 4 3 3 2 3 3 3 4 3 5
3 8 6 6 11 12 11 9 9 8 7 5 8 10 14 13 13 13 13 11 11 10 11 11 8 7 6 4 3 3 2 3 1 2 3 2 3 1 3 2 3 4 5
7 9 10 11 10 6 11 11 15 11 10 14 13 13 10 9 11 11 10 8 8 8 9 9 11 9 8 7 6 5 3 3 1 1 2 3 2 3 1 2 5 2 6
10 11 5 6 5 5 8 5 8 12 12 14 13 11 7 9 9 11 11 13 11 8 5 8 7 10 9 9 5 5 5 3 2 2 2 2 2 3 1 1 3 4 4
6 8 6 3 3 4 6 5 10 11 9 11 13 12 9 6 10 12 8 5 6 6 7 7 6 11 9 11 10 9 9 6 3 3 2 3 3 3 2 2 2 2 4
4 5 7 6 5 7 8 6 11 17 19 15 15 14 13 12 13 12 12 6 6 8 8 7 6 5 8 6 6 6 8 8 7 5 4 5 3 5 2 2 3 2 3
4 4 4 5 3 9 11 11 6 5 10 15 17 18 17 15 13 13 15 10 10 9 9 9 8 7 7 7 6 4 5 5 6 4 6 6 6 4 4 3 2 3 3
3 5 5 3 3 3 11 10 6 6 11 13 11 14 17 13 17 14 10 8 10 10 10 10 9 8 10 10 7 6 4 4 4 7 7 6 7 7 7 1 2 1 3
2 1 4 5 5 5 4 6 10 8 8 6 6 7 9 10 15 19 16 9 10 8 7 8 13 11 13 13 8 6 5 6 3 4 3 3 5 6 3 5 3 2 2
5 2 4 6 6 5 5 4 7 9 6 6 7 6 8 11 12 17 18 10 10 9 9 7 6 12 13 13 9 7 7 4 5 3 4 4 4 5 3 2 4 5 4
7 5 4 5 5 6 6 6 5 4 8 7 7 5 3 5 10 16 20 19 15 13 12 8 6 11 13 13 9 9 8 6 3 3 3 4 4 4 4 4 4 5 6
6 6 4 5 5 6 5 6 4 4 2 1 3 3 3 5 5 11 10 10 17 12 8 10 16 13 12 7 7 8 7 4 4 3 4 4 3 4 4 3 3 3 4
8 7 5 5 4 7 5 4 3 3 3 0 3 5 4 4 4 5 6 7 7 7 13 11 9 8 7 5 4 5 4 5 5 5 4 4 3 1 1 1 3 3 3
5 6 5 4 4 3 3 4 4 3 2 2 1 4 6 5 5 13 13 9 8 9 6 5 2 3 4 2 0 3 3 3 4 3 2 1 1 0 1 2 1 2 5
5 5 6 6 6 4 2 2 9 11 14 14 13 6 3 12 14 18 20 20 16 13 5 4 2 2 3 1 2 3 1 2 2 2 2 2 2 2 3 0 0 3 5
6 5 4 6 6 4 2 1 3 6 13 15 13 12 11 8 11 12 12 11 17 14 7 0 2 2 3 4 1 2 1 3 3 3 3 3 3 3 3 1 2 3 4
6 8 6 6 7 7 6 4 2 3 3 2 8 7 9 11 11 9 10 6 3 7 2 2 4 3 0 1 3 2 3 2 2 2 3 4 3 4 2 2 3 4 4
6 5 6 6 6 6 5 5 5 3 4 4 2 4 4 5 7 8 7 4 4 6 2 2 4 1 1 3 2 3 3 3 3 3 4 5 4 3 3 4 4 6 5
2 6 8 7 6 5 5 5 5 5 5 4 4 3 2 1 2 3 3 3 3 4 3 2 2 1 2 3 3 3 3 4 3 4 5 4 3 4 4 4 5 7 6
3 4 7 7 6 5 3 4 4 4 4 3 3 3 5 4 4 3 3 4 3 4 1 1 2 2 2 4 4 4 4 4 4 5 4 4 4 5 4 6 7 7 7
3 4 6 7 7 8 5 5 7 5 4 4 2 2 9 5 5 2 3 4 3 2 1 2 2 3 3 4 5 5 5 5 5 5 6 5 5 5 6 7 7 7 7
1 6 5 6 6 7 7 7 7 6 5 5 3 4 5 4 3 2 4 4 2 2 2 1 1 2 3 3 4 4 5 6 5 5 6 6 6 6 6 8 8 8 7
5 8 8 8 8 7 8 8 6 6 7 5 4 3 5 4 3 3 3 4 4 4 4 4 5 6 5 5 4 5 6 6 6 7 9 8 8 7 7 8 8 10 7
9 11 10 7 6 7 8 8 7 7 5 4 4 3 4 4 2 3 4 4 5 4 4 4 3 4 5 7 7 9 8 9 8 7 6 9 9 11 9 7 8 6 8
3 4 4 5 8 8 9 9 9 8 8 8 7 7 7 6 6 7 5 5 3 4 5 4 6 9 9 6 8 10 9 9 7 5 5 6 7 8 7 9 10 7 7
Wind_Direction
236 230 231 190 171 171 250 266 249 200 235 215 182 161 177 169 164 172 196 188 174 170 173 165 177 167 165 137 136 150 138 123 193 303 271 306 327 350 357 8 22 13 345
301 285 244 268 228 200 206 196 259 256 272 286 229 176 184 188 170 180 194 195 198 180 186 174 186 172 163 174 176 156 136 126 150 258 264 304 321 332 318 357 346 4 332
281 237 242 203 214 203 198 193 186 196 194 235 245 205 200 193 176 195 195 195 203 201 187 180 183 172 176 185 183 158 114 96 139 206 277 272 273 313 329 318 309 326 325
336 336 198 195 187 209 213 214 182 189 200 224 227 224 200 201 196 196 197 207 210 222 208 199 166 179 182 177 183 162 157 140 150 275 271 273 278 296 351 329 330 307 330
343 15 163 150 145 197 251 238 243 230 207 218 220 219 203 201 206 195 199 211 201 203 226 232 197 172 184 174 156 175 157 160 182 231 265 282 285 309 311 284 270 299 303
2 4 76 247 187 170 166 196 218 203 199 221 209 205 197 203 206 193 183 202 201 201 204 231 218 167 177 177 179 163 171 172 198 199 226 241 248 253 245 221 259 353 338
3 4 21 59 322 247 236 232 218 182 181 204 202 206 203 212 200 191 188 177 187 202 196 197 211 195 164 178 197 185 185 192 191 178 211 227 240 227 239 255 260 229 233
350 18 24 24 9 255 255 251 244 197 220 211 213 197 201 207 190 189 196 190 203 194 183 186 185 190 173 174 169 193 223 221 226 218 221 249 232 251 221 217 237 280 290
71 356 346 9 328 346 272 278 282 226 210 211 201 191 192 199 185 194 200 201 207 193 186 186 184 182 167 164 163 200 213 255 269 250 242 250 263 249 229 228 306 49 310
185 116 323 356 0 327 303 308 248 240 223 218 203 189 181 198 187 191 180 198 208 197 189 181 179 185 167 176 175 186 217 244 239 265 303 293 292 294 258 193 167 227 219
144 76 31 11 344 329 323 272 286 242 217 216 225 212 196 202 198 201 192 193 200 201 187 180 185 181 168 170 161 171 199 172 224 247 282 287 293 293 300 265 205 188 194
128 107 35 24 2 341 340 325 340 268 228 207 212 227 219 200 200 207 197 208 198 191 190 180 159 157 142 153 153 180 196 190 213 222 255 271 274 292 306 297 272 217 222
136 133 120 55 13 345 356 345 346 0 331 174 212 202 73 50 63 49 48 272 195 189 179 157 142 145 139 149 187 200 188 196 204 213 233 245 223 241 266 287 310 296 270
154 147 139 104 56 359 354 359 358 11 334 134 111 110 93 76 59 66 60 52 1 92 116 126 142 135 145 170 212 222 211 193 190 218 223 234 235 139 15 308 277 307 302
170 146 146 114 111 72 347 22 350 54 350 321 19 142 136 108 102 104 95 72 49 345 55 85 69 125 140 134 86 282 277 180 187 206 175 151 288 264 262 251 253 326 291
157 171 152 155 155 141 254 60 40 31 35 37 26 25 97 138 143 116 113 107 86 50 3 344 58 103 99 133 162 119 49 95 150 154 203 201 240 258 252 224 329 287 283
148 170 155 147 146 149 190 28 91 34 41 41 34 46 63 69 37 53 56 79 120 125 142 316 10 349 78 90 170 114 222 222 209 216 216 223 223 243 222 269 261 249 270
137 181 171 167 162 170 175 174 148 139 113 46 28 50 78 102 96 84 100 91 50 56 103 130 114 131 86 235 245 224 243 280 256 257 260 249 238 229 228 240 249 263 269
137 163 166 169 164 166 165 161 173 161 131 125 127 62 61 69 111 112 111 83 107 110 136 118 82 91 264 266 273 273 265 252 248 262 253 243 232 229 240 239 254 241 241
214 205 167 167 149 150 159 159 154 145 132 153 155 137 155 295 69 50 56 101 110 83 76 84 80 20 326 306 283 272 259 257 252 249 248 247 247 237 243 251 248 251 241
233 186 149 144 131 117 128 145 139 128 143 153 136 135 163 119 99 94 101 74 74 100 124 71 29 10 304 265 253 251 252 257 250 251 251 252 246 247 248 246 249 245 247
205 143 142 132 140 131 201 124 108 107 105 116 144 109 97 91 93 112 104 88 79 77 1 343 344 328 311 297 298 299 291 286 273 261 258 253 252 252 249 247 245 243 239
208 133 131 120 124 126 108 119 119 112 122 104 94 89 92 92 118 126 104 104 84 10 337 344 51 338 290 304 300 295 286 281 279 285 274 264 258 252 247 250 249 243 235
357 122 110 127 123 124 121 112 108 123 119 115 104 106 106 103 98 94 84 65 41 36 20 20 20 348 329 328 322 300 287 289 291 273 265 257 251 250 243 244 248 249 248
13 82 81 65 95 107 100 104 106 104 106 105 111 108 92 80 57 63 59 64 57 44 23 16 355 324 351 341 320 323 296 280 268 266 255 244 241 246 247 245 243 246 241
121 80 86 85 90 94 96 92 87 85 81 76 75 70 70 65 56 63 65 66 62 36 20 353 0 10 7 355 322 313 323 324 332 296 250 236 235 234 227 237 238 237 242